SAS4628 EGLL-ENZV

Flight info

Callsign SAS4628
Flight time 1h 19m
Altitude 41000
Route BPK Q295 MATCH P144 DIGSU P5 BUZDE DCT LAMRO DCT NIVUN DCT UNBUD
Aircraft B736/M-SDE2E3FGHIRWXY/L

Departure

Time 2026-05-05 08:46
Airport London Heathrow Airport (EGLL)

Arrival

Time 2026-05-05 10:06
Airport Stavanger Airport, Sola (ENZV)
Time Latitude Longitude Altitude Speed Heading
2026-05-05 08:22 51.46827 -0.45112 85 ft 0 kts 359°
2026-05-05 08:35 51.46813 -0.45112 87 ft 4 kts 359°
2026-05-05 08:35 51.46788 -0.45111 85 ft 2 kts 359°
2026-05-05 08:35 51.46765 -0.45115 85 ft 4 kts 28°
2026-05-05 08:36 51.46751 -0.45141 87 ft 4 kts 88°
2026-05-05 08:36 51.46751 -0.45173 89 ft 0 kts 90°
2026-05-05 08:40 51.46751 -0.45155 88 ft 3 kts 90°
2026-05-05 08:41 51.46742 -0.45102 86 ft 7 kts 123°
2026-05-05 08:41 51.46691 -0.45077 85 ft 10 kts 194°
2026-05-05 08:41 51.46662 -0.45176 85 ft 12 kts 273°
2026-05-05 08:41 51.46663 -0.45327 85 ft 15 kts 270°
2026-05-05 08:42 51.46662 -0.45504 85 ft 17 kts 270°
2026-05-05 08:42 51.46662 -0.45685 85 ft 16 kts 270°
2026-05-05 08:42 51.46662 -0.45860 85 ft 15 kts 270°
2026-05-05 08:42 51.46661 -0.46027 85 ft 15 kts 269°
2026-05-05 08:43 51.46660 -0.46189 85 ft 15 kts 269°
2026-05-05 08:43 51.46659 -0.46363 88 ft 16 kts 270°
2026-05-05 08:43 51.46659 -0.46547 85 ft 17 kts 268°
2026-05-05 08:43 51.46655 -0.46741 85 ft 18 kts 270°
2026-05-05 08:44 51.46657 -0.46954 87 ft 20 kts 270°
2026-05-05 08:44 51.46655 -0.47188 85 ft 22 kts 270°
2026-05-05 08:44 51.46655 -0.47421 86 ft 18 kts 263°
2026-05-05 08:44 51.46557 -0.47490 86 ft 17 kts 177°
2026-05-05 08:45 51.46481 -0.47439 85 ft 6 kts 91°
2026-05-05 08:45 51.46481 -0.47426 85 ft 0 kts 88°
2026-05-05 08:45 51.46482 -0.47407 85 ft 13 kts 88°
2026-05-05 08:45 51.46484 -0.46862 88 ft 84 kts 89°
2026-05-05 08:46 51.46488 -0.45598 87 ft 140 kts 88°
2026-05-05 08:46 51.46486 -0.43936 428 ft 152 kts 88°
2026-05-05 08:46 51.46539 -0.42207 1034 ft 155 kts 75°
2026-05-05 08:46 51.46961 -0.40654 1626 ft 154 kts 54°
2026-05-05 08:47 51.47658 -0.39279 2108 ft 173 kts 47°
2026-05-05 08:47 51.48485 -0.37734 2628 ft 194 kts 48°
2026-05-05 08:47 51.49432 -0.35940 2919 ft 226 kts 48°
2026-05-05 08:47 51.50471 -0.33945 3594 ft 236 kts 49°
2026-05-05 08:48 51.51554 -0.31912 4353 ft 247 kts 49°
2026-05-05 08:48 51.52572 -0.29609 5020 ft 258 kts 68°
2026-05-05 08:48 51.53079 -0.26854 5961 ft 259 kts 72°
2026-05-05 08:48 51.53614 -0.24043 6737 ft 268 kts 71°
2026-05-05 08:49 51.54197 -0.21182 7602 ft 273 kts 70°
2026-05-05 08:49 51.55204 -0.18611 8466 ft 276 kts 38°
2026-05-05 08:49 51.56933 -0.17361 9442 ft 278 kts 11°
2026-05-05 08:49 51.58856 -0.16720 10293 ft 287 kts 12°
2026-05-05 08:50 51.60901 -0.16238 10788 ft 307 kts
2026-05-05 08:50 51.63063 -0.15811 11548 ft 318 kts
2026-05-05 08:50 51.65239 -0.15068 12470 ft 322 kts 13°
2026-05-05 08:50 51.67424 -0.14169 13498 ft 326 kts 15°
2026-05-05 08:51 51.69629 -0.13179 14378 ft 332 kts 16°
2026-05-05 08:51 51.71867 -0.12090 15165 ft 340 kts 22°
2026-05-05 08:51 51.73846 -0.09997 15990 ft 345 kts 46°
2026-05-05 08:51 51.75174 -0.06784 16860 ft 348 kts 68°
2026-05-05 08:52 51.75751 -0.02982 17746 ft 352 kts 82°
2026-05-05 08:52 51.76068 0.00963 18562 ft 357 kts 85°
2026-05-05 08:52 51.76346 0.04924 19309 ft 362 kts 84°
2026-05-05 08:52 51.76646 0.09040 20117 ft 367 kts 85°
2026-05-05 08:53 51.76963 0.13089 20902 ft 371 kts 84°
2026-05-05 08:53 51.77298 0.17246 21702 ft 375 kts 84°
2026-05-05 08:53 51.77680 0.21447 22475 ft 382 kts 79°
2026-05-05 08:53 51.78582 0.25514 23253 ft 389 kts 65°
2026-05-05 08:54 51.79988 0.29272 23959 ft 396 kts 54°
2026-05-05 08:54 51.81878 0.32567 24546 ft 404 kts 44°
2026-05-05 08:54 51.83964 0.35683 25087 ft 412 kts 43°
2026-05-05 08:54 51.86108 0.38794 25734 ft 416 kts 42°
2026-05-05 08:55 51.88271 0.41952 26392 ft 420 kts 43°
2026-05-05 08:55 51.90436 0.45166 26999 ft 425 kts 43°
2026-05-05 08:55 51.92619 0.48446 27584 ft 431 kts 43°
2026-05-05 08:55 51.94824 0.51784 28151 ft 436 kts 43°
2026-05-05 08:56 51.96323 0.54058 28541 ft 439 kts 43°
2026-05-05 08:56 51.99298 0.58569 29306 ft 445 kts 41°
2026-05-05 08:56 52.00915 0.60730 29663 ft 448 kts 35°
2026-05-05 08:56 52.03519 0.63399 30171 ft 450 kts 27°
2026-05-05 08:57 52.06377 0.65473 30715 ft 449 kts 16°
2026-05-05 08:57 52.09363 0.66918 31315 ft 448 kts 13°
2026-05-05 08:57 52.12377 0.68228 31778 ft 450 kts 13°
2026-05-05 08:57 52.15416 0.69523 32182 ft 453 kts 13°
2026-05-05 08:58 52.18477 0.70853 32572 ft 456 kts 14°
2026-05-05 08:58 52.21545 0.72220 32999 ft 458 kts 14°
2026-05-05 08:58 52.24610 0.73614 33563 ft 456 kts 15°
2026-05-05 08:58 52.27647 0.75009 34188 ft 451 kts 15°
2026-05-05 08:59 52.30657 0.76394 34698 ft 448 kts 15°
2026-05-05 08:59 52.33660 0.77775 35105 ft 448 kts 15°
2026-05-05 08:59 52.36671 0.79131 35402 ft 450 kts 14°
2026-05-05 08:59 52.39707 0.80412 35745 ft 451 kts 13°
2026-05-05 09:00 52.42745 0.81651 36135 ft 450 kts 13°
2026-05-05 09:00 52.45781 0.82881 36497 ft 450 kts 13°
2026-05-05 09:00 52.48823 0.84116 36833 ft 450 kts 13°
2026-05-05 09:00 52.51860 0.85359 37164 ft 450 kts 13°
2026-05-05 09:01 52.54893 0.86609 37543 ft 449 kts 13°
2026-05-05 09:01 52.57919 0.87863 37905 ft 448 kts 13°
2026-05-05 09:01 52.60946 0.89122 38194 ft 449 kts 13°
2026-05-05 09:01 52.63977 0.90386 38468 ft 450 kts 13°
2026-05-05 09:02 52.67012 0.91654 38754 ft 450 kts 13°
2026-05-05 09:02 52.70049 0.92925 39000 ft 450 kts 13°
2026-05-05 09:02 52.73077 0.94194 39230 ft 450 kts 13°
2026-05-05 09:02 52.76113 0.95467 39462 ft 450 kts 13°
2026-05-05 09:03 52.79148 0.96742 39694 ft 450 kts 13°
2026-05-05 09:03 52.82182 0.98019 39925 ft 450 kts 13°
2026-05-05 09:03 52.85216 0.99297 40146 ft 450 kts 13°
2026-05-05 09:03 52.88253 1.00578 40339 ft 450 kts 13°
2026-05-05 09:04 52.91290 1.01860 40542 ft 451 kts 13°
2026-05-05 09:04 52.94326 1.03145 40745 ft 451 kts 13°
2026-05-05 09:04 52.97367 1.04433 40943 ft 451 kts 13°
2026-05-05 09:05 53.03483 1.07029 41011 ft 455 kts 13°
2026-05-05 09:05 53.09591 1.09632 41002 ft 451 kts 13°
2026-05-05 09:06 53.15651 1.12220 41007 ft 448 kts 13°
2026-05-05 09:06 53.21664 1.14796 41008 ft 445 kts 13°
2026-05-05 09:07 53.27658 1.17371 41013 ft 445 kts 13°
2026-05-05 09:07 53.33654 1.19954 41016 ft 445 kts 13°
2026-05-05 09:08 53.39671 1.22556 41016 ft 447 kts 13°
2026-05-05 09:08 53.45709 1.25189 41013 ft 450 kts 13°
2026-05-05 09:09 53.51741 1.27830 41011 ft 452 kts 13°
2026-05-05 09:09 53.57884 1.30525 41013 ft 454 kts 13°
2026-05-05 09:10 53.63967 1.33202 41012 ft 456 kts 13°
2026-05-05 09:10 53.70103 1.35911 41002 ft 456 kts 13°
2026-05-05 09:11 53.76248 1.38639 41017 ft 456 kts 14°
2026-05-05 09:11 53.82276 1.42035 41012 ft 457 kts 18°
2026-05-05 09:12 53.88228 1.45773 41004 ft 455 kts 19°
2026-05-05 09:12 53.94162 1.49499 41009 ft 454 kts 18°
2026-05-05 09:13 54.00086 1.53167 41013 ft 452 kts 18°
2026-05-05 09:13 54.05998 1.56810 41008 ft 451 kts 18°
2026-05-05 09:14 54.11896 1.60448 40997 ft 450 kts 18°
2026-05-05 09:14 54.17780 1.64089 40999 ft 449 kts 18°
2026-05-05 09:15 54.23655 1.67738 41008 ft 450 kts 17°
2026-05-05 09:15 54.29535 1.71400 41005 ft 450 kts 18°
2026-05-05 09:16 54.35422 1.75079 40998 ft 450 kts 18°
2026-05-05 09:16 54.41307 1.78768 41003 ft 451 kts 18°
2026-05-05 09:17 54.47196 1.82471 41004 ft 451 kts 18°
2026-05-05 09:17 54.53091 1.86189 41005 ft 452 kts 18°
2026-05-05 09:18 54.58993 1.89922 40998 ft 452 kts 18°
2026-05-05 09:18 54.64900 1.93671 40995 ft 452 kts 18°
2026-05-05 09:19 54.70808 1.97432 41000 ft 452 kts 18°
2026-05-05 09:19 54.76674 2.01178 41006 ft 453 kts 17°
2026-05-05 09:20 54.82583 2.04963 40998 ft 453 kts 17°
2026-05-05 09:20 54.88486 2.08756 40992 ft 452 kts 17°
2026-05-05 09:21 54.94385 2.12558 40992 ft 452 kts 18°
2026-05-05 09:21 55.00271 2.16364 41011 ft 451 kts 17°
2026-05-05 09:22 55.06150 2.20177 40991 ft 451 kts 17°
2026-05-05 09:22 55.12027 2.24001 40994 ft 450 kts 17°
2026-05-05 09:23 55.17896 2.27832 40992 ft 450 kts 17°
2026-05-05 09:23 55.23761 2.31672 40990 ft 450 kts 17°
2026-05-05 09:24 55.29628 2.35525 40997 ft 450 kts 17°
2026-05-05 09:24 55.35492 2.39388 40986 ft 450 kts 17°
2026-05-05 09:25 55.41356 2.43265 40988 ft 450 kts 17°
2026-05-05 09:25 55.47217 2.47151 40990 ft 450 kts 17°
2026-05-05 09:26 55.53078 2.51050 40998 ft 450 kts 17°
2026-05-05 09:26 55.58945 2.54965 40989 ft 451 kts 17°
2026-05-05 09:27 55.64808 2.58890 40987 ft 451 kts 17°
2026-05-05 09:27 55.70669 2.62827 40987 ft 451 kts 17°
2026-05-05 09:28 55.76530 2.66776 41010 ft 451 kts 17°
2026-05-05 09:28 55.82355 2.70714 40998 ft 451 kts 17°
2026-05-05 09:29 55.88221 2.74692 40993 ft 451 kts 17°
2026-05-05 09:29 55.94094 2.78687 40992 ft 451 kts 17°
2026-05-05 09:30 55.99959 2.82690 40988 ft 451 kts 17°
2026-05-05 09:30 56.05823 2.86707 40988 ft 451 kts 17°
2026-05-05 09:31 56.11686 2.90734 40986 ft 451 kts 17°
2026-05-05 09:31 56.17555 2.94780 40983 ft 452 kts 17°
2026-05-05 09:32 56.23419 2.98835 40987 ft 452 kts 17°
2026-05-05 09:32 56.29284 3.02905 40992 ft 452 kts 17°
2026-05-05 09:33 56.35161 3.06995 40980 ft 453 kts 17°
2026-05-05 09:33 56.41036 3.11098 40975 ft 453 kts 17°
2026-05-05 09:34 56.46914 3.15218 40972 ft 453 kts 17°
2026-05-05 09:34 56.52793 3.19351 40972 ft 453 kts 17°
2026-05-05 09:35 56.58672 3.23499 40974 ft 454 kts 17°
2026-05-05 09:35 56.67492 3.29747 40980 ft 453 kts 17°
2026-05-05 09:36 56.73367 3.33927 40994 ft 453 kts 17°
2026-05-05 09:36 56.79234 3.38115 40990 ft 453 kts 17°
2026-05-05 09:37 56.85100 3.42316 41008 ft 453 kts 17°
2026-05-05 09:37 56.90920 3.46499 41018 ft 453 kts 17°
2026-05-05 09:38 56.96782 3.50726 41017 ft 452 kts 17°
2026-05-05 09:38 57.02667 3.54997 40480 ft 460 kts 19°
2026-05-05 09:39 57.05587 3.57619 39909 ft 462 kts 25°
2026-05-05 09:39 57.08378 3.60554 39314 ft 463 kts 26°
2026-05-05 09:39 57.11115 3.63573 38679 ft 465 kts 27°
2026-05-05 09:39 57.13880 3.66653 37888 ft 465 kts 26°
2026-05-05 09:40 57.16651 3.69720 37254 ft 463 kts 26°
2026-05-05 09:40 57.19397 3.72729 36787 ft 456 kts 26°
2026-05-05 09:40 57.22117 3.75687 36301 ft 451 kts 25°
2026-05-05 09:40 57.24812 3.78602 35829 ft 447 kts 25°
2026-05-05 09:41 57.27483 3.81488 35349 ft 443 kts 25°
2026-05-05 09:41 57.30134 3.84353 34871 ft 440 kts 25°
2026-05-05 09:41 57.32769 3.87206 34459 ft 437 kts 24°
2026-05-05 09:41 57.35390 3.90049 33906 ft 436 kts 24°
2026-05-05 09:42 57.38002 3.92888 33370 ft 434 kts 24°
2026-05-05 09:42 57.40596 3.95714 32884 ft 430 kts 24°
2026-05-05 09:42 57.43165 3.98520 32423 ft 427 kts 24°
2026-05-05 09:42 57.45711 4.01305 31974 ft 423 kts 24°
2026-05-05 09:43 57.48235 4.04069 31534 ft 420 kts 24°
2026-05-05 09:43 57.49895 4.05888 31250 ft 418 kts 24°
2026-05-05 09:43 57.52389 4.08625 30820 ft 415 kts 24°
2026-05-05 09:43 57.54863 4.11346 30396 ft 412 kts 24°
2026-05-05 09:44 57.57276 4.14235 29914 ft 415 kts 31°
2026-05-05 09:44 57.59470 4.17814 29253 ft 422 kts 38°
2026-05-05 09:44 57.61564 4.21632 28713 ft 420 kts 39°
2026-05-05 09:44 57.63620 4.25475 28233 ft 417 kts 39°
2026-05-05 09:45 57.65655 4.29287 27777 ft 413 kts 39°
2026-05-05 09:45 57.67678 4.33057 27338 ft 409 kts 39°
2026-05-05 09:45 57.69690 4.36784 26909 ft 405 kts 38°
2026-05-05 09:45 57.71690 4.40468 26484 ft 402 kts 38°
2026-05-05 09:46 57.73671 4.44113 26071 ft 399 kts 38°
2026-05-05 09:46 57.75644 4.47740 25658 ft 396 kts 38°
2026-05-05 09:46 57.77601 4.51340 25247 ft 393 kts 38°
2026-05-05 09:46 57.79546 4.54924 24828 ft 391 kts 38°
2026-05-05 09:47 57.81478 4.58488 24413 ft 389 kts 38°
2026-05-05 09:47 57.83401 4.62043 23998 ft 387 kts 38°
2026-05-05 09:47 57.85320 4.65594 23595 ft 387 kts 37°
2026-05-05 09:47 57.87232 4.69138 23084 ft 386 kts 37°
2026-05-05 09:48 57.89134 4.72674 22637 ft 383 kts 38°
2026-05-05 09:48 57.91021 4.76188 22210 ft 380 kts 38°
2026-05-05 09:48 57.92890 4.79674 21790 ft 377 kts 38°
2026-05-05 09:48 57.94745 4.83139 21385 ft 374 kts 38°
2026-05-05 09:49 57.96583 4.86575 20973 ft 371 kts 38°
2026-05-05 09:49 57.98411 4.89997 20572 ft 369 kts 38°
2026-05-05 09:49 58.00223 4.93395 20170 ft 367 kts 38°
2026-05-05 09:49 58.02027 4.96783 19771 ft 365 kts 38°
2026-05-05 09:50 58.03818 5.00151 19371 ft 363 kts 38°
2026-05-05 09:50 58.05600 5.03507 18963 ft 361 kts 38°
2026-05-05 09:50 58.07373 5.06848 18575 ft 359 kts 38°
2026-05-05 09:50 58.09138 5.10182 18178 ft 358 kts 38°
2026-05-05 09:51 58.10892 5.13498 17781 ft 356 kts 37°
2026-05-05 09:51 58.12788 5.16318 17348 ft 338 kts 18°
2026-05-05 09:51 58.14909 5.17870 17004 ft 317 kts
2026-05-05 09:51 58.17039 5.18442 16652 ft 305 kts 355°
2026-05-05 09:52 58.19141 5.18830 16280 ft 302 kts 354°
2026-05-05 09:52 58.21221 5.19188 15923 ft 299 kts 354°
2026-05-05 09:52 58.23283 5.19547 15568 ft 296 kts 354°
2026-05-05 09:52 58.25331 5.19911 15216 ft 294 kts 354°
2026-05-05 09:53 58.27360 5.20281 14859 ft 292 kts 355°
2026-05-05 09:53 58.29382 5.20655 14506 ft 291 kts 355°
2026-05-05 09:53 58.31386 5.21031 14165 ft 289 kts 355°
2026-05-05 09:53 58.33378 5.21408 13817 ft 287 kts 355°
2026-05-05 09:54 58.35334 5.21780 13428 ft 285 kts 355°
2026-05-05 09:54 58.37302 5.22156 13096 ft 283 kts 356°
2026-05-05 09:54 58.39251 5.22530 12736 ft 280 kts 356°
2026-05-05 09:54 58.41181 5.22901 12390 ft 277 kts 357°
2026-05-05 09:55 58.43089 5.23270 12049 ft 275 kts 357°
2026-05-05 09:55 58.44982 5.23634 11715 ft 272 kts 358°
2026-05-05 09:55 58.46857 5.23991 11372 ft 270 kts 357°
2026-05-05 09:55 58.48725 5.24215 10968 ft 268 kts 355°
2026-05-05 09:56 58.50580 5.24370 10579 ft 265 kts 356°
2026-05-05 09:56 58.52414 5.24518 10045 ft 263 kts 356°
2026-05-05 09:56 58.54245 5.24668 9474 ft 262 kts 357°
2026-05-05 09:56 58.56059 5.24824 8953 ft 259 kts 358°
2026-05-05 09:57 58.57851 5.24983 8434 ft 257 kts 358°
2026-05-05 09:57 58.59627 5.25143 7918 ft 254 kts 358°
2026-05-05 09:57 58.61384 5.25304 7429 ft 251 kts 359°
2026-05-05 09:57 58.63121 5.25464 6959 ft 249 kts 359°
2026-05-05 09:58 58.64856 5.25625 6597 ft 249 kts 360°
2026-05-05 09:58 58.66582 5.25786 6263 ft 248 kts 360°
2026-05-05 09:58 58.68300 5.25948 5935 ft 246 kts
2026-05-05 09:58 58.70000 5.26108 5639 ft 243 kts
2026-05-05 09:59 58.71680 5.26267 5339 ft 241 kts
2026-05-05 09:59 58.73342 5.26424 5053 ft 238 kts
2026-05-05 09:59 58.74990 5.26580 4746 ft 236 kts
2026-05-05 09:59 58.76627 5.26735 4432 ft 235 kts
2026-05-05 10:00 58.78253 5.26890 4121 ft 233 kts
2026-05-05 10:00 58.79867 5.27043 3820 ft 232 kts
2026-05-05 10:00 58.81468 5.27196 3598 ft 226 kts
2026-05-05 10:00 58.82987 5.27343 3517 ft 211 kts
2026-05-05 10:01 58.84392 5.27479 3413 ft 194 kts
2026-05-05 10:01 58.85665 5.27605 3325 ft 179 kts
2026-05-05 10:01 58.86825 5.28394 3215 ft 181 kts 32°
2026-05-05 10:01 58.87830 5.29852 3064 ft 181 kts 32°
2026-05-05 10:02 58.88849 5.31280 2917 ft 181 kts 32°
2026-05-05 10:02 58.89865 5.32705 2764 ft 180 kts 32°
2026-05-05 10:02 58.90875 5.34130 2649 ft 180 kts 33°
2026-05-05 10:02 58.91606 5.36087 2517 ft 187 kts 75°
2026-05-05 10:03 58.91465 5.38611 2353 ft 194 kts 104°
2026-05-05 10:03 58.91109 5.41113 2060 ft 189 kts 104°
2026-05-05 10:03 58.90759 5.43494 1813 ft 179 kts 104°
2026-05-05 10:03 58.90417 5.45754 1573 ft 171 kts 104°
2026-05-05 10:04 58.90083 5.47948 1375 ft 170 kts 104°
2026-05-05 10:04 58.89759 5.50067 1166 ft 155 kts 103°
2026-05-05 10:04 58.89473 5.51949 931 ft 137 kts 104°
2026-05-05 10:04 58.89205 5.53657 733 ft 134 kts 105°
2026-05-05 10:05 58.88947 5.55407 603 ft 136 kts 103°
2026-05-05 10:05 58.88683 5.57131 426 ft 130 kts 104°
2026-05-05 10:05 58.88437 5.58819 238 ft 132 kts 103°
2026-05-05 10:05 58.88181 5.60470 70 ft 127 kts 105°
2026-05-05 10:06 58.87951 5.62000 24 ft 98 kts 108°
2026-05-05 10:06 58.87819 5.62875 27 ft 36 kts 105°
2026-05-05 10:06 58.87773 5.63211 30 ft 13 kts 93°
2026-05-05 10:06 58.87842 5.63291 30 ft 11 kts 14°
2026-05-05 10:07 58.87909 5.63340 30 ft 9 kts 22°
2026-05-05 10:07 58.87921 5.63350 29 ft 0 kts 22°
2026-05-05 10:08 58.87929 5.63357 31 ft 3 kts 23°
2026-05-05 10:08 58.87965 5.63388 29 ft 8 kts 24°
2026-05-05 10:08 58.88044 5.63436 29 ft 15 kts
2026-05-05 10:08 58.88158 5.63432 29 ft 17 kts 357°
2026-05-05 10:09 58.88272 5.63413 30 ft 11 kts 339°
2026-05-05 10:09 58.88269 5.63310 28 ft 8 kts 254°
2026-05-05 10:09 58.88252 5.63194 28 ft 10 kts 255°
2026-05-05 10:09 58.88242 5.63117 28 ft 3 kts 256°
2026-05-05 10:10 58.88239 5.63093 26 ft 1 kts 256°